Location: Bow
(51.5261°N, 0.0167°W)
Time: 23:26:00
(UTC+00:00)

ERS-1 Rocket - Pass Details

Date: 18 September 2020
Orbit: 753 x 757 km, 98.5° (Epoch: 30 October)

Event Time Altitude Azimuth Distance (km) Brightness Sun altitude
Exits shadow 20:57:22 51° 54° (NE) 957 3.3 -25.3°
Drops below altitude 10° 21:01:56 10° 353° (N) 2,297 6.0 -25.8°
Sets 21:04:17 0° 349° (N) 3,228 7.0 -26.1°
